Location: Huntsville
(41.2590°N, 111.7678°W)
Time: 18:38:22
(UTC+00:00)

N. Korean satellite - Pass Details

Date: 09 December 2021
Orbit: 446 x 492 km, 97.3° (Epoch: 17 January)

Event Time Altitude Azimuth Distance (km) Brightness Sun altitude
Rises 11:48:06 0° 31° (NNE) 2,455 10.5 -31.7°
Reaches altitude 10° 11:50:46 10° 55° (NE) 1,578 9.7 -31.2°
Maximum altitude 11:52:52 16° 93° (E) 1,278 9.5 -30.8°
Drops below altitude 10° 11:54:58 10° 132° (SE) 1,574 9.7 -30.4°
Sets 11:57:37 0° 156° (SSE) 2,445 10.5 -29.9°
